カタログに戻る

STARLINK-36360

運用中通信SSO
NORAD 68402·PAYLOAD·🇺🇸 United States

打ち上げ Mar 26, 2026 から Vandenberg Space Force Base

Loading…

次のパス (今後24時間)

TLE

最新Source: CelesTrak SupGP

元期: Sep 14, 2026, 22:34 UTC

1 68402C 26063Y   26257.94076389 -.00022555  00000+0 -70019-3 0  2572
2 68402  97.2860  38.8965 0001117  95.8312  47.4263 15.33448778    18

AllMySatでSTARLINK-36360をリアルタイム追跡

Download on the App Store